Tracking 19969 objects as of 13-Nov-2019
Live streaming from Space Station
objects crossing your sky now
Track the group of recently launched Starlink satellites

THOR ABLESTAR DEB

Track THOR ABLESTAR DEB now!
10-day predictions


NORAD ID: 2432
Int'l Code: 1963-049G
Perigee: 1,062.1 km
Apogee: 1,112.7 km
Inclination: 89.9 °
Period: 106.8 minutes
Semi major axis: 7458 km
RCS: 0.149 m2 (medium)
Launch date: December 5, 1963
Source: United States (US)
Launch site: AIR FORCE WESTERN TEST RANGE (AFWTR)

Note: This is SATELLITE DEBRIS
aabbcc
Your satellite tracking list
Your tracking list is empty




NASA's NSSDC Master Catalog

Two Line Element Set (TLE):
1  2432U 63049G   19316.87093074  .00000036  00000-0  42854-4 0  9997
2  2432  89.9046  92.7903 0033887 331.6753 182.5442 13.47830129748717
Source of the keplerian elements: AFSPC